CAPE
1 1 1 0 0 0 0 0 0 0 0 0 0 0 0 0 0 0 0 0 0 0 0 0 0 0 0 0 0 0 0 0 0 0 0 0 0 0 11 182 302 226 187 116 162 67 459
1 1 1 1 1 0 0 0 0 0 0 0 0 0 0 0 0 0 0 0 0 0 0 0 0 0 0 0 0 0 0 0 0 0 0 0 0 0 24 147 231 280 215 115 75 138 412
0 0 1 1 1 0 0 0 0 0 0 0 0 0 0 0 0 0 0 0 0 0 0 0 0 0 0 0 0 0 0 0 0 0 0 0 0 0 1 143 279 258 185 137 129 182 166
1 0 0 0 0 1 1 0 0 0 0 0 0 0 0 0 0 0 0 0 0 0 0 0 0 0 0 0 0 0 0 0 0 0 0 0 0 2 57 258 210 97 56 52 111 105 66
1 1 1 1 0 0 0 0 1 0 0 0 0 0 0 0 0 0 0 0 0 0 0 0 0 0 0 0 0 0 0 0 0 0 0 0 0 0 102 102 91 50 45 58 128 169 79
1 1 1 1 1 1 1 1 0 1 0 0 0 0 0 0 0 0 0 0 0 0 0 0 0 0 0 0 0 0 0 0 0 0 0 0 0 0 19 62 8 10 36 82 107 177 160
0 0 0 1 0 0 1 1 0 0 1 0 0 0 0 0 0 0 0 0 0 0 0 0 0 0 0 0 0 0 0 0 0 0 0 0 0 1 28 10 4 0 38 70 136 177 186
0 0 0 0 0 1 0 0 0 1 1 1 0 0 0 0 0 0 0 0 0 0 0 0 0 0 0 0 0 0 0 0 0 0 0 0 0 2 0 0 0 1 58 112 138 195 249
0 0 0 0 0 0 0 0 0 0 1 1 0 0 0 0 0 0 0 0 0 0 0 0 0 0 0 0 0 0 0 0 0 0 0 0 0 3 0 0 3 34 50 91 76 277 440
0 0 0 0 0 0 0 0 0 0 1 0 0 0 0 0 0 0 0 0 0 0 0 0 0 0 0 0 0 0 0 0 0 0 0 0 0 0 0 0 5 29 26 59 88 250 285
0 0 0 0 0 0 0 0 0 0 0 1 0 0 0 0 0 0 0 0 0 0 0 0 0 0 0 0 0 0 0 0 0 0 0 0 0 0 0 0 0 16 57 122 131 163 148
4 0 0 0 0 0 0 0 0 0 0 0 0 0 0 0 0 0 0 0 0 0 0 0 0 0 0 0 0 0 0 0 0 0 0 0 0 0 0 0 0 3 55 73 111 84 160
2 6 0 0 0 0 0 0 0 0 0 0 0 0 0 0 0 0 0 0 0 0 0 0 0 0 0 0 0 0 0 0 0 0 0 0 0 0 0 0 0 0 6 77 185 175 125
0 4 5 0 0 0 0 0 0 0 0 0 0 0 0 0 0 0 0 0 0 0 0 0 0 0 0 0 0 0 0 0 0 0 0 0 0 0 0 0 0 0 2 53 173 130 156
0 4 6 0 0 0 0 0 0 0 0 0 0 0 0 0 0 0 0 0 0 0 0 0 0 0 0 0 0 0 0 0 0 0 0 0 0 0 0 0 0 0 0 5 93 80 67
0 5 5 0 0 0 0 0 0 0 0 0 0 0 0 0 0 0 0 0 0 0 0 0 0 0 0 0 0 0 0 0 0 0 0 0 0 0 0 0 0 0 0 8 31 55 97
0 2 1 0 0 0 0 0 0 0 0 0 0 0 0 0 0 0 0 0 0 0 0 0 0 0 0 0 0 0 0 0 0 0 0 0 0 0 0 0 0 0 0 0 1 1 5
0 0 2 0 0 0 0 0 0 0 0 0 0 0 0 0 0 0 0 0 0 0 0 0 0 0 0 0 0 0 0 0 0 0 0 0 0 0 0 0 0 0 0 4 22 23 0
0 0 0 4 0 0 0 0 0 0 0 0 0 0 0 0 0 0 0 0 0 0 0 0 0 0 0 0 0 0 0 0 0 0 0 0 0 0 0 0 0 0 0 0 18 24 0
0 0 0 1 1 0 0 0 0 0 0 0 0 0 0 0 0 0 0 0 0 0 0 0 0 0 0 0 0 0 0 0 0 0 0 0 0 0 0 0 0 0 0 0 3 12 1
3 0 1 0 7 1 0 0 0 0 0 0 0 93 56 0 0 0 0 0 0 0 0 0 0 0 0 36 0 0 0 0 0 0 0 0 0 0 0 0 0 0 0 0 0 0 0
2 0 1 0 1 9 0 0 0 0 0 0 0 0 0 39 0 0 0 0 5 0 0 0 123 205 235 243 43 9 117 116 169 0 0 0 0 0 0 0 0 0 0 0 0 0 0
6 4 0 0 0 4 0 0 1 0 0 0 0 0 0 0 41 89 61 24 49 81 23 131 294 308 391 285 205 248 237 254 214 194 0 0 0 0 0 0 0 0 0 0 0 0 0
10 4 1 0 1 1 1 0 0 0 0 0 0 0 0 0 1 64 76 65 54 91 102 116 168 234 454 275 243 333 233 304 282 139 125 0 0 0 0 0 0 0 0 0 0 0 0
9 2 2 0 1 1 3 0 0 0 0 3 0 0 0 0 0 0 0 0 15 27 14 57 168 230 320 238 528 400 260 412 356 228 127 119 170 117 0 0 0 0 0 0 0 0 0
3 2 1 0 0 1 4 0 1 0 0 0 3 0 0 0 0 0 0 0 0 2 11 98 148 101 171 516 607 471 262 228 268 364 315 66 137 165 150 33 16 1 63 254 110 0 99
0 0 1 1 0 0 2 4 0 0 0 1 0 0 2 0 0 0 0 0 0 0 1 57 91 138 324 534 522 416 284 414 314 230 435 331 319 41 73 88 74 134 360 348 13 128 357
0 0 0 1 0 1 0 5 0 0 0 1 3 1 4 1 0 0 0 0 0 0 0 19 25 323 281 533 547 479 403 488 520 287 442 300 221 192 251 175 120 215 270 306 568 621 616
0 0 0 0 1 1 0 2 4 0 0 0 1 0 3 5 0 0 0 0 0 0 0 0 18 148 141 604 714 810 607 665 336 357 641 281 244 205 220 296 771 545 482 591 546 482 614
CIN
0 0 0 0 0 0 0 0 0 0 0 0 0 0 0 0 0 0 0 0 0 0 0 0 0 0 0 0 0 0 0 0 0 0 0 0 0 0 -13 -22 -40 -32 -43 -59 -70 -43 -27
0 0 0 0 0 0 0 0 0 0 0 0 0 0 0 0 0 0 0 0 0 0 0 0 0 0 0 0 0 0 0 0 0 0 0 0 0 0 -17 -27 -16 -37 -46 -49 -63 -46 -25
0 0 0 0 0 0 0 0 0 0 0 0 0 0 0 0 0 0 0 0 0 0 0 0 0 0 0 0 0 0 0 0 0 0 0 0 0 0 -2 -27 -44 -49 -31 -39 -43 -43 -31
-1 -2 -1 -1 0 0 0 0 0 0 0 0 0 0 0 0 0 0 0 0 0 0 0 0 0 0 0 0 0 0 0 0 0 0 0 0 0 -8 -32 -40 -40 -27 -31 -9 -44 -51 -60
-3 -1 -1 -1 -1 0 -1 0 0 0 0 0 0 0 0 0 0 0 0 0 0 0 0 0 0 0 0 0 0 0 0 0 0 0 0 0 0 0 -38 -16 -6 -14 -5 -16 -25 -66 -57
-3 -1 -2 0 0 -1 -1 0 0 0 0 0 0 0 0 0 0 0 0 0 0 0 0 0 0 0 0 0 0 0 0 0 0 0 0 0 0 0 -5 -4 -14 -10 -7 -7 -17 -43 -68
0 0 0 -4 0 -1 -1 -1 -1 0 0 0 0 0 0 0 0 0 0 0 0 0 0 0 0 0 0 0 0 0 0 0 0 0 0 0 0 -3 -2 -6 -16 0 -9 -8 -20 -56 -61
0 0 0 0 0 -1 -1 -2 0 0 0 0 0 0 0 0 0 0 0 0 0 0 0 0 0 0 0 0 0 0 0 0 0 0 0 0 0 -2 0 0 0 -2 -2 -2 -22 -42 -57
0 0 0 0 0 0 0 0 0 -1 0 0 0 0 0 0 0 0 0 0 0 0 0 0 0 0 0 0 0 0 0 0 0 0 0 0 0 -2 0 0 -3 -12 -5 -2 -6 -25 -45
0 0 0 0 0 0 0 0 -1 0 0 0 0 0 0 0 0 0 0 0 0 0 0 0 0 0 0 0 0 0 0 0 0 0 0 0 0 0 0 0 -4 -6 -22 -8 -12 -13 -5
0 0 0 0 0 0 0 -1 -1 0 0 0 0 0 0 0 0 0 0 0 0 0 0 0 0 0 0 0 0 0 0 0 0 0 0 0 0 0 0 0 0 -2 -24 -10 -16 -11 -7
-11 -3 0 0 0 0 0 0 0 -1 -1 0 0 0 0 0 0 0 0 0 0 0 0 0 0 0 0 0 0 0 0 0 0 0 0 0 0 0 0 -2 0 -77 -21 -14 -7 -8 -6
-15 -7 -6 0 0 0 0 0 0 -1 0 0 0 0 0 0 0 0 0 0 0 0 0 0 0 0 0 0 0 0 0 0 0 0 0 0 0 0 0 -1 0 0 -8 -5 -5 -7 -7
0 -10 -7 0 0 0 0 0 -1 0 0 0 0 0 0 0 0 0 0 0 0 0 0 0 0 0 0 0 0 0 0 0 0 0 0 0 0 0 0 0 0 0 -1 -9 -8 -7 -8
0 -11 -3 -3 0 0 0 0 -5 0 0 0 0 0 0 0 0 0 0 0 0 0 0 0 0 0 0 0 0 0 0 0 0 0 0 0 0 0 0 0 0 0 0 -2 -10 -3 -6
0 -13 -10 -2 0 0 0 0 -6 0 0 0 0 0 0 0 0 0 0 0 0 0 0 0 0 0 0 0 0 0 0 0 0 0 0 0 0 0 0 0 0 0 0 -3 -19 -6 -3
0 -12 -2 -22 0 0 0 0 0 0 0 0 0 0 0 0 0 0 0 0 0 0 0 0 0 0 0 0 0 0 0 0 0 0 0 0 0 0 0 0 0 0 0 0 -2 -1 -3
0 0 -6 0 0 0 0 0 0 0 0 0 0 0 0 0 0 0 0 0 0 0 0 0 0 0 0 0 0 0 0 0 0 0 0 0 0 0 0 0 0 0 0 -2 -3 -4 0
0 0 0 -4 0 0 0 0 0 0 0 0 0 0 0 0 0 0 0 0 0 0 0 0 0 0 0 0 0 0 0 0 0 0 0 0 0 0 0 0 0 0 0 0 -3 -5 0
0 0 0 -10 -3 0 0 0 0 0 0 0 0 0 0 0 0 0 0 0 0 0 0 0 0 0 0 0 0 0 0 0 0 0 0 0 0 0 0 0 0 0 0 0 -3 -3 -3
0 0 -14 0 -7 -3 0 0 0 0 0 0 0 -43 -29 0 0 0 0 0 0 0 0 0 0 0 0 -52 0 0 0 0 0 0 0 0 0 0 0 0 0 0 0 0 0 0 0
0 0 -13 0 -21 -2 0 0 0 0 0 0 0 0 0 -67 0 0 0 0 -31 -1 0 0 -49 -31 -57 -45 -24 -6 -35 -20 -8 0 0 0 0 0 0 0 0 0 0 0 0 0 0
-1 -7 -3 0 0 -7 0 0 -12 0 0 0 0 0 0 0 -43 -19 -4 -14 -9 -38 -68 -57 -44 -80 -39 -53 -97 -132 -112 -76 -48 -68 0 0 0 0 0 0 0 0 0 0 0 0 0
0 -6 -7 0 0 0 -2 -1 0 0 0 0 0 0 0 0 -6 -6 -22 -34 -46 -68 -86 -81 -87 -110 -67 -151 -147 -115 -92 -61 -46 -53 -60 0 0 0 0 0 0 0 0 0 0 0 0
-3 -8 -4 0 0 0 0 -2 0 0 0 0 0 -1 0 0 0 0 0 0 -104 -143 -138 -128 -84 -105 -139 -132 -35 -12 -17 -22 -18 -49 -46 -42 -12 -10 0 0 0 0 0 0 0 0 0
-6 -7 -4 0 0 0 0 0 -7 0 0 0 0 0 0 0 0 0 0 0 0 -70 -129 -70 -92 -163 -168 -53 -8 -9 -7 -6 -4 -19 -38 -39 -33 -8 -6 -6 -5 0 -26 -77 -61 0 -42
-1 -1 -1 0 0 0 0 0 0 0 0 0 -1 0 -1 -1 0 0 0 0 0 0 -87 -82 -123 -96 -125 -22 -5 -5 -6 -9 -5 -5 -10 -12 -11 -7 -6 -5 -5 -38 -93 -104 -6 -18 -84
-3 0 0 0 0 0 0 0 0 0 0 0 0 0 0 -2 0 0 0 0 0 0 0 -112 -77 -75 -65 -22 -4 -6 -8 -2 -8 -8 -2 -5 -5 -6 -7 -7 -4 -85 -99 -27 -93 -96 -129
0 0 0 0 0 0 0 0 0 0 -8 0 0 0 0 0 0 0 0 0 0 0 0 0 -59 -139 -114 -48 -20 -11 -9 -13 -8 -5 -43 -15 -6 -10 -3 -5 -44 -74 -53 -68 -106 -147 -166
Wind_Speed
18 18 19 19 19 20 20 20 20 21 21 21 22 23 23 24 24 25 25 25 25 25 25 24 23 22 19 12 10 9 11 9 15 16 18 14 12 12 14 16 15 13 14 12 14 14 16
18 19 19 20 20 20 21 21 21 22 22 22 23 24 24 26 26 26 26 26 25 25 25 24 23 22 16 12 12 9 8 7 15 16 17 15 13 11 13 17 13 7 13 10 12 14 16
19 19 20 21 21 21 22 22 23 23 23 24 24 26 27 27 27 27 27 27 26 26 25 24 22 18 17 11 12 10 19 11 12 17 17 11 14 13 14 15 12 14 11 13 14 14 16
20 21 21 21 22 22 23 23 24 24 25 25 26 27 28 28 28 29 29 28 27 26 24 19 16 16 17 13 16 20 14 18 15 16 17 18 14 13 13 14 13 11 12 16 16 13 16
21 22 22 22 23 23 24 24 25 25 26 27 28 28 29 29 29 30 30 28 25 21 16 12 15 16 16 12 12 8 3 4 6 12 14 16 12 13 13 14 13 13 22 21 16 14 14
22 23 23 23 24 24 25 25 26 26 27 28 29 29 30 30 31 30 28 23 15 15 16 16 18 16 16 10 13 14 10 7 4 9 10 16 14 15 13 14 20 21 19 19 11 15 14
23 23 24 24 24 25 26 26 27 27 28 28 29 30 30 31 31 28 23 17 18 17 17 19 15 18 14 18 13 7 6 1 6 11 16 13 15 14 10 17 16 15 14 14 15 16 13
23 24 24 25 25 26 26 27 28 28 28 29 30 30 30 31 31 25 20 19 17 19 24 22 25 26 26 19 15 5 3 10 9 18 17 9 20 19 11 20 16 11 13 16 11 13 11
24 25 25 25 26 26 27 28 28 28 29 29 30 31 30 32 28 20 19 14 16 22 21 18 18 20 16 11 11 4 4 16 13 19 15 21 20 13 17 22 19 14 15 18 19 19 10
26 26 26 26 27 27 28 28 29 29 30 30 30 30 30 31 20 21 16 14 22 18 19 14 15 14 13 14 17 8 4 5 4 18 16 22 27 10 19 25 22 20 18 20 20 18 17
27 27 27 27 27 28 28 29 29 30 31 31 31 30 30 25 24 19 16 19 19 15 20 15 13 14 14 11 13 7 5 5 6 6 12 17 24 20 23 24 21 22 19 19 20 21 20
29 28 28 28 28 28 29 29 30 30 31 31 31 31 29 19 20 19 19 20 15 17 21 15 13 14 12 13 13 7 6 12 15 3 6 28 14 27 26 12 20 18 13 8 15 21 21
30 29 28 28 28 28 29 29 30 31 31 32 31 31 26 21 17 18 18 14 18 22 15 15 16 14 16 13 14 11 8 7 8 7 5 11 13 25 24 13 7 21 20 10 10 11 16
30 29 28 28 29 29 29 30 30 30 31 31 32 29 18 18 18 18 13 15 22 19 18 16 18 18 17 14 16 15 13 14 9 13 14 5 10 14 4 20 10 7 24 23 14 18 20
29 28 26 28 28 29 29 30 30 30 31 31 29 20 18 16 16 13 12 17 18 17 16 19 17 16 15 15 19 16 18 18 15 15 19 13 8 5 8 5 5 1 8 26 26 19 21
28 28 26 26 28 28 29 29 29 30 30 30 24 20 16 18 11 10 13 20 17 16 17 18 18 17 18 14 17 18 17 19 22 16 24 17 20 7 6 11 10 10 16 6 4 19 22
28 28 22 25 27 28 28 28 28 29 30 27 20 18 16 10 10 11 14 17 18 17 19 18 17 19 18 18 20 19 21 21 19 15 17 22 20 13 7 13 15 5 6 7 22 19 25
27 28 22 24 26 27 27 27 27 28 29 22 18 16 11 13 10 14 18 18 18 18 17 21 20 21 22 18 21 22 23 21 16 16 16 16 19 21 12 9 10 14 14 14 2 13 19
7 26 25 22 25 25 26 25 26 26 25 22 20 17 11 14 15 15 17 19 20 19 19 18 19 18 17 21 21 20 19 20 19 15 17 12 20 21 19 9 10 9 8 12 20 29 29
12 19 24 25 20 22 24 25 24 24 24 21 18 15 12 13 17 19 16 17 18 16 22 21 21 21 22 24 22 19 18 16 16 21 23 17 24 23 23 22 12 11 9 6 16 17 17
14 18 21 23 23 19 22 23 23 24 23 19 16 16 17 13 13 15 15 16 17 18 16 17 19 22 22 21 20 20 19 16 14 16 18 21 26 24 26 27 23 11 12 14 17 24 33
12 15 18 22 23 19 20 21 22 23 23 18 19 18 17 19 17 16 14 17 19 18 17 16 19 18 23 25 23 17 18 17 16 14 17 21 24 25 25 23 22 24 27 34 9 32 33
16 17 19 20 22 18 17 19 20 21 21 19 18 19 19 16 16 16 14 15 17 17 19 23 23 24 23 20 24 27 27 25 22 19 17 21 22 20 24 18 21 26 23 15 16 13 30
14 16 19 20 22 20 14 17 18 18 20 20 19 21 20 21 18 18 18 16 16 18 23 24 25 26 19 26 29 27 25 23 21 19 21 16 20 22 22 16 23 21 9 12 19 27 34
12 12 15 18 21 20 12 13 16 17 19 21 20 20 21 24 22 23 20 21 23 25 27 28 28 26 25 27 24 21 20 20 19 20 21 20 18 18 22 23 21 16 14 15 19 27 27
15 14 13 13 17 18 12 11 15 16 18 21 21 20 22 24 21 22 21 20 23 24 26 26 24 23 23 25 25 25 22 24 21 19 21 21 23 25 19 28 26 24 11 16 20 30 18
15 14 12 11 13 14 16 8 11 14 18 18 22 20 23 25 27 23 19 21 19 21 23 22 22 22 21 25 28 27 32 19 23 22 19 20 22 26 25 27 26 15 16 17 24 25 21
15 15 13 11 12 10 15 8 7 12 17 19 23 21 23 25 30 28 25 25 24 24 25 19 22 19 24 26 27 22 31 20 28 27 23 24 25 23 23 26 30 17 18 25 22 21 24
15 13 13 11 11 9 13 14 4 14 14 22 24 21 22 26 27 27 30 31 34 32 25 19 21 20 20 24 23 24 25 25 29 29 21 32 29 30 25 23 18 18 25 24 26 27 26
Wind_Direction
330 329 328 327 326 324 324 324 322 319 316 314 311 309 307 303 299 294 291 287 281 276 274 275 276 275 299 352 0 34 311 39 113 130 162 146 116 108 74 53 81 127 95 116 108 107 77
329 328 327 325 324 323 321 320 320 318 317 314 312 309 305 299 296 294 290 285 280 273 270 272 274 274 313 332 330 342 60 37 126 135 151 144 109 188 89 40 92 150 207 145 108 107 73
327 326 324 324 323 321 320 319 316 315 315 314 311 307 302 300 297 294 288 284 279 269 263 266 278 298 304 319 322 323 257 118 117 148 158 93 174 155 62 72 208 248 154 110 77 84 45
324 324 323 321 320 319 317 316 315 314 313 312 309 306 304 302 299 295 289 283 276 274 270 292 307 305 298 315 290 266 153 163 146 152 166 210 137 101 112 89 175 187 124 63 27 95 72
322 323 322 321 319 318 316 314 313 312 311 310 308 307 305 303 300 297 291 284 285 293 309 326 308 300 303 317 308 321 357 77 106 126 134 150 102 136 96 160 116 82 354 15 47 76 104
319 319 319 318 319 317 315 314 314 312 309 308 307 307 306 303 300 297 292 296 316 313 306 301 292 297 293 311 303 288 297 298 104 119 114 153 148 164 133 172 335 321 10 36 235 79 143
315 315 316 317 317 316 315 314 313 313 310 307 307 306 305 303 299 296 302 309 300 299 292 283 300 286 310 293 301 309 303 95 130 146 163 147 160 151 125 299 252 237 64 240 268 60 121
311 313 313 314 313 314 313 313 313 312 311 308 307 306 305 301 297 293 305 299 307 302 285 281 272 269 267 285 293 301 299 145 150 169 164 142 176 176 338 242 229 179 99 335 314 100 154
308 309 310 311 311 311 311 310 309 309 308 306 306 306 305 302 295 303 302 308 315 303 290 290 285 280 282 287 295 302 164 165 159 173 167 183 176 159 172 207 218 203 216 273 272 267 148
303 305 306 308 309 310 310 310 309 308 306 305 303 302 303 302 301 305 302 310 302 306 289 293 289 289 282 281 283 285 253 160 154 175 173 187 193 153 176 209 246 245 297 271 259 251 273
302 303 303 304 305 307 308 308 308 308 307 304 302 302 302 305 293 297 303 299 305 304 280 297 291 297 281 263 297 269 275 269 174 166 167 179 184 178 188 192 280 285 303 280 265 247 258
300 304 303 302 303 305 306 306 306 305 304 302 301 300 303 312 304 295 297 296 303 285 276 293 296 285 275 260 279 286 263 280 282 234 187 201 173 195 195 177 278 304 348 92 286 239 232
297 300 303 304 302 305 304 303 303 302 302 299 296 293 296 301 303 302 296 299 283 273 295 290 288 285 273 261 264 269 238 238 266 266 231 178 181 187 200 177 311 278 271 240 349 349 313
301 301 302 302 301 302 302 301 300 299 300 297 293 289 314 300 296 294 293 286 275 286 283 298 290 285 272 265 258 267 253 253 235 277 285 246 183 173 194 187 173 169 207 264 339 322 303
304 305 308 302 300 300 300 299 300 300 300 297 288 306 302 309 299 291 284 276 285 285 291 291 291 278 272 267 269 260 263 260 258 262 270 274 230 172 178 238 201 168 168 250 272 307 305
307 306 315 309 300 298 298 299 299 299 299 298 294 298 302 301 308 294 284 275 287 289 291 294 281 281 272 265 266 257 261 273 263 261 261 280 276 256 231 268 278 288 308 342 133 307 300
306 310 337 318 306 298 296 298 298 301 301 298 302 299 316 333 306 290 283 284 284 286 285 289 284 283 277 274 268 269 265 270 267 256 258 266 275 286 225 192 183 224 196 287 290 301 281
294 323 343 329 312 304 297 298 301 305 305 302 300 302 323 300 301 291 284 285 290 285 288 284 286 281 272 279 274 270 267 267 267 263 251 257 273 273 271 257 232 275 185 180 233 317 305
23 329 335 338 324 308 299 297 301 307 314 302 296 301 312 297 294 292 293 287 286 285 282 284 281 282 284 276 276 273 277 277 272 258 258 246 268 269 276 242 266 203 196 283 270 270 266
3 352 338 332 339 320 303 296 301 305 307 305 296 297 306 294 297 293 296 291 288 291 280 276 277 280 275 272 270 273 276 287 280 263 264 256 263 264 266 270 257 225 212 225 192 197 260
355 349 344 333 329 331 311 299 301 303 305 302 295 295 290 296 291 298 303 303 292 289 285 280 278 271 274 271 269 266 273 284 290 273 263 258 259 268 268 269 273 241 208 193 192 206 236
357 353 346 334 325 330 320 307 302 302 300 296 289 288 291 287 295 292 300 297 291 291 284 274 269 276 269 262 265 268 277 278 280 288 264 258 265 265 266 269 269 267 265 256 238 221 268
351 349 343 340 330 329 324 312 304 302 298 291 292 288 285 288 290 292 299 296 296 293 282 268 268 266 266 270 265 265 265 266 273 276 275 260 261 267 265 270 272 267 267 273 281 293 275
359 351 342 336 326 325 329 315 306 303 295 288 287 281 280 276 281 282 291 299 295 287 273 266 263 260 274 272 265 261 262 264 270 272 267 271 260 266 270 273 267 280 272 278 285 287 280
18 12 359 342 330 327 333 322 309 299 294 283 286 278 275 269 278 274 283 284 278 270 264 260 258 264 272 264 260 259 258 263 268 268 263 265 268 272 267 266 276 280 283 285 290 289 302
18 14 7 2 347 334 333 325 305 300 291 279 276 279 270 270 278 274 279 284 275 272 265 263 268 270 272 261 256 254 256 257 263 268 268 267 266 268 273 266 266 275 285 294 297 286 320
21 15 15 12 0 350 327 328 315 304 287 287 267 276 267 266 266 270 279 277 281 275 270 277 272 269 267 259 253 256 248 267 260 262 269 268 270 267 270 269 271 296 294 295 282 294 314
18 14 16 13 5 4 332 324 324 304 286 274 263 273 265 265 260 260 264 268 269 268 266 288 273 272 264 258 259 266 254 273 260 264 269 267 273 276 277 273 271 294 293 278 293 304 309
17 18 16 20 15 12 337 311 336 289 290 258 258 273 272 266 263 269 253 252 246 248 273 282 277 278 275 263 266 269 264 268 263 263 274 265 270 273 280 285 301 299 287 294 295 294 299